Lid_Strength_Index
-0 1 1 1 1 1 1 0 -1 -0 -0 -1 -1 -1 -1 -0 -0 -0 -0 0 0 1
0 0 0 -0 -0 0 0 -0 -1 -1 -0 -1 -1 -1 -1 -0 0 -0 -0 0 0 0
1 0 0 -0 -0 -1 0 -0 -0 3 -0 -0 -1 -1 -1 -0 -0 0 0 0 0 0
1 0 0 0 -0 -0 -1 0 3 2 2 -0 -0 -0 -0 -0 -0 0 0 -0 0 0
0 0 1 0 0 -0 -0 -1 -0 1 0 0 -0 -0 0 0 0 1 1 1 0 1
1 1 1 1 0 -0 -0 -0 -1 -1 0 -0 0 0 -0 0 0 0 0 0 0 1
1 1 0 0 0 0 -0 0 -0 -0 -0 0 0 -0 -0 0 0 0 0 0 0 0
1 0 -0 0 0 -0 0 0 -0 0 0 -0 0 0 0 0 0 0 1 0 0 0
2 2 2 1 0 0 0 0 0 0 0 1 0 2 2 1 1 0 1 1 0 0
3 2 3 2 2 1 1 0 0 0 0 1 0 3 4 3 0 0 0 1 1 1
3 3 3 3 4 3 2 1 1 1 0 0 0 4 5 4 -0 0 0 0 0 0
1 3 3 3 3 3 3 2 1 0 1 1 0 4 7 5 0 1 1 0 0 0
1 1 1 2 2 2 2 1 1 1 0 2 1 4 6 6 1 1 1 0 0 3
0 0 0 -0 -0 2 2 2 1 1 1 0 1 1 6 8 1 1 1 1 1 1